Weather History for Stuart, FL

Change the Weather History Date:

Sunday, November 18, 2012

  Actual Average Record
Temperature  
Mean Temperature 70 °F -  
Max Temperature 75 °F 79 °F 87 °F (1948)
Min Temperature 66 °F 62 °F 33 °F (2002)
Cooling Degree Days 6    
Growing Degree Days 20 (Base 50)    
Moisture  
Dew Point 64 °F    
Average Humidity 80    
Maximum Humidity 94    
Minimum Humidity 73    
Precipitation  
Precipitation 0.00 in - - ()
Sea Level Pressure  
Sea Level Pressure 30.10 in    
Wind  
Wind Speed 10 mph (North)    
Max Wind Speed 21 mph    
Max Gust Speed 25 mph    
Visibility 9 miles    
Events      
Averages and records for this station are not official NWS values.
T = Trace of Precipitation, MM = Missing Value Source: NWS Daily Summary

Daily Weather History Graph

Daily Weather History Graph

Search for Another Location

Airport:

Trip Planner

Search our weather history database for the weather conditions in past years. The results will help you decide how hot, cold, wet, or windy it might be!

Date:

Astronomy

Nov. 18, 2012 Rise Set
Actual Time 6:43 AM EST 5:28 PM EST
Civil Twilight 6:18 AM EST 5:53 PM EST
Nautical Twilight 5:50 AM EST 6:21 PM EST
Astronomical Twilight 5:22 AM EST 6:49 PM EST
Moon 11:14 AM EST (11/18) 10:38 PM EST (11/18)
Length of Visible Light 11h 34m
Length of Day
10h 44m
Waxing Crescent, 30% of the Moon is Illuminated
Nov 18
Waxing Crescent
Nov 20
First Quarter
Nov 28
Full
Dec 6
Last Quarter
Dec 13
New

Hourly Weather History & Observations

Time (EST) Temp. Dew Point Humidity Pressure Visibility Wind Dir Wind Speed Gust Speed Precip Events Conditions
12:15 AM 69.8 °F 64.4 °F 83% 30.09 in 10.0 mi North 9.2 mph - N/A   Overcast
12:35 AM 71.6 °F 64.4 °F 78% 30.08 in 10.0 mi NNE 8.1 mph - N/A   Overcast
12:55 AM 73.4 °F 64.4 °F 73% 30.08 in 10.0 mi NE 12.7 mph 16.1 mph N/A   Mostly Cloudy
1:15 AM 73.4 °F 64.4 °F 73% 30.08 in 10.0 mi NE 9.2 mph - N/A   Overcast
1:35 AM 71.6 °F 64.4 °F 78% 30.07 in 10.0 mi ENE 9.2 mph - N/A   Mostly Cloudy
1:55 AM 71.6 °F 64.4 °F 78% 30.07 in 10.0 mi NNE 6.9 mph - N/A   Mostly Cloudy
2:15 AM 71.6 °F 64.4 °F 78% 30.07 in 10.0 mi NNE 9.2 mph - N/A   Mostly Cloudy
2:35 AM 73.4 °F 64.4 °F 73% 30.07 in 10.0 mi NNE 8.1 mph - N/A   Mostly Cloudy
2:55 AM 71.6 °F 64.4 °F 78% 30.07 in 10.0 mi NNE 8.1 mph - N/A   Mostly Cloudy
3:15 AM 71.6 °F 64.4 °F 78% 30.06 in 10.0 mi North 8.1 mph - N/A   Scattered Clouds
3:35 AM 71.6 °F 64.4 °F 78% 30.06 in 10.0 mi North 6.9 mph - N/A   Clear
3:55 AM 71.6 °F 64.4 °F 78% 30.06 in 10.0 mi NNE 5.8 mph - N/A   Mostly Cloudy
4:15 AM 71.6 °F 64.4 °F 78% 30.06 in 10.0 mi NNE 10.4 mph - N/A   Overcast
4:35 AM 71.6 °F 64.4 °F 78% 30.06 in 10.0 mi NE 5.8 mph - N/A   Mostly Cloudy
4:55 AM 68.0 °F 62.6 °F 83% 30.07 in 10.0 mi WNW 4.6 mph - N/A   Mostly Cloudy
5:15 AM 66.2 °F 62.6 °F 88% 30.07 in 10.0 mi WNW 5.8 mph - N/A   Mostly Cloudy
7:47 AM 68.0 °F 64.4 °F 88% 30.11 in 7.0 mi NNW 6.9 mph - N/A   Mostly Cloudy
8:08 AM 68.0 °F 66.2 °F 94% 30.11 in 5.0 mi NNW 6.9 mph - N/A   Haze
8:47 AM 71.6 °F 68.0 °F 88% 30.11 in 5.0 mi North 13.8 mph - N/A   Mostly Cloudy
9:47 AM 73.4 °F 66.2 °F 78% 30.13 in 7.0 mi North 13.8 mph - N/A   Mostly Cloudy
10:47 AM 73.4 °F 66.2 °F 78% 30.12 in 7.0 mi North 19.6 mph - N/A   Scattered Clouds
11:47 AM 75.2 °F 68.0 °F 78% 30.11 in 7.0 mi North 15.0 mph - N/A   Scattered Clouds
12:47 PM 75.2 °F 66.2 °F 73% 30.09 in 7.0 mi North 18.4 mph - N/A   Scattered Clouds
1:47 PM 75.2 °F 66.2 °F 73% 30.09 in 7.0 mi North 13.8 mph 25.3 mph N/A   Scattered Clouds
2:47 PM 73.4 °F 64.4 °F 73% 30.08 in 7.0 mi North 20.7 mph - N/A   Scattered Clouds
3:47 PM 71.6 °F 64.4 °F 78% 30.08 in 7.0 mi NNW 15.0 mph - N/A   Scattered Clouds
4:47 PM 71.6 °F 64.4 °F 78% 30.08 in 7.0 mi NNW 10.4 mph - N/A   Scattered Clouds
5:47 PM 71.6 °F 64.4 °F 78% 30.09 in 7.0 mi North 16.1 mph 25.3 mph N/A   Mostly Cloudy
7:15 PM 68.0 °F 64.4 °F 88% 30.13 in 7.0 mi North 11.5 mph 17.3 mph N/A   Mostly Cloudy
7:35 PM 68.0 °F 64.4 °F 88% 30.14 in 10.0 mi North 11.5 mph 19.6 mph N/A   Mostly Cloudy
7:55 PM 68.0 °F 64.4 °F 88% 30.14 in 10.0 mi North 13.8 mph 21.9 mph N/A   Mostly Cloudy
8:15 PM 68.0 °F 62.6 °F 83% 30.15 in 10.0 mi North 12.7 mph 21.9 mph N/A   Scattered Clouds
8:35 PM 68.0 °F 62.6 °F 83% 30.15 in 10.0 mi North 13.8 mph 19.6 mph N/A   Scattered Clouds
9:15 PM 68.0 °F 62.6 °F 83% 30.15 in 10.0 mi North 13.8 mph 20.7 mph N/A   Scattered Clouds
9:35 PM 68.0 °F 62.6 °F 83% 30.15 in 10.0 mi North 11.5 mph 20.7 mph N/A   Scattered Clouds
9:55 PM 68.0 °F 62.6 °F 83% 30.15 in 10.0 mi North 11.5 mph 21.9 mph N/A   Clear
10:15 PM 68.0 °F 62.6 °F 83% 30.15 in 10.0 mi North 10.4 mph 17.3 mph N/A   Clear
10:35 PM 68.0 °F 60.8 °F 78% 30.15 in 10.0 mi North 11.5 mph 20.7 mph N/A   Clear
10:55 PM 68.0 °F 60.8 °F 78% 30.15 in 10.0 mi North 10.4 mph 20.7 mph N/A   Clear
11:35 PM 66.2 °F 60.8 °F 83% 30.14 in 10.0 mi North 12.7 mph 19.6 mph N/A   Clear